FENGYUN 1C DEB, 31410

Orbit data source: Space-Track

FENGYUN 1C DEB, 31410 is space debris in SSO originally from a launch on Mon, 10 May 1999 UTC launched from the Taiyaun Space Center, China (TSC). Fengyun 1C debris stems from the Chinese weather satellite Fengyun-1C, which was intentionally destroyed by a Chinese anti-satellite missile in 2007. This event dramatically increased the amount of space debris, with thousands of trackable fragments posing hazards to satellites and human spaceflight. The Fengyun 1C debris cloud has become a focal point in discussions about space sustainability and the need for international regulations to prevent the creation of new debris.

Loading next visibility...
Identifier
31410, 1999-025BSW
Orbit
SSO
Country
Flag of CNCN / PRC
Related business
Manufacturer
Unknown
Mission
Spacecraft
Bus & Motor
Unknown
Mass
Unknown
Launch date (UTC)
1999-05-10 (27 years ago)
Launch vehicle
Unknown
Launch site
Taiyaun Space Center, China (TSC)
Object type
Payload
Rocket body
Debris
Shape & HBR
Unknown shape, 0.1 m
Radar Cross Section
Small (<0.1 m²)

Expand to show TLE details & history
Last TLE update: 1 day ago

TLE from 1 day ago
0 FENGYUN 1C DEB
1 31410U 99025BSW 26206.97754485  .00001556  00000-0  42056-3 0  9996
2 31410  98.8570  23.0530 0108291 333.2630 178.2301 14.45976793 10011
Epoch: 2026-07-25T23:27Z
TLE epoch observation values (Epoch: 2026-07-25T23:27:39.875Z)
Latitude
28.14291°
Longitude
-87.78918°
Altitude
819.35 km
Speed
7.406 km/s
True Right ascension
13h 51m 14s
True Declination
28° 00' 05"
Sunlit
Object was in daylight at epoch
Visualization orbit readout
Latitude
Unknown
Longitude
Unknown
Altitude
Unknown
Speed
Unknown
Apparent Right ascension
Unknown
Apparent Declination
Unknown
Sunlit
N/A
Visualization observer readout
Local Sidereal Time
22:27:13
Azimuth
Unknown
Elevation
Unknown
Doppler factor
Unknown
Orbital elements
Apogee altitude
812.989 km
Perigee altitude
658.911 km
Semi-major axis
7,114.087 km
Eccentricity
0.01083
Inclination
98.857°
RAAN
23.053°
Arg. of periapsis
333.263°
True anomaly
178.26791°
Mean anomaly
178.2301°
Eccentric anomaly
178.24906°
Mean motion
3.61713 °/min
Orbital period
99.53 mins
BSTAR
0.00042056
Loading maneuver chart data...
Computing Atmospheric mass density...

Documentation

Showing up to 5 results
|